When you browse on this site, cookies collect data to enhance your experience and personalize the content and advertising you see.
Visit our Privacy Policy to learn more. By continuing to use the site, you agree to this use of cookies and data.
  • Em Portugal
  • Lista de países
  • Para 7 dias
  • Temperatura da água
  • Mapas de satélite
  • Mapa do tempo
  • Widgets de tempo
  • user-avatar
    Iniciar Sessão

    Previsão horária em Kuklin

    Hoje, 17 Junho, Segunda-feira

    Tempo Temperatura Precipitação Vento Pressão Humidade
    00:00 +14°C° 0 mm 3 m/s 748 mmHg 95%
    01:00 +13°C° 0 mm 3 m/s 749 mmHg 95%
    02:00 +13°C° 0 mm 3 m/s 749 mmHg 94%
    03:00 +13°C° 0 mm 3 m/s 748 mmHg 93%
    04:00 +12°C° 0 mm 4 m/s 748 mmHg 92%
    05:00 +14°C° 0 mm 4 m/s 749 mmHg 89%
    06:00 +15°C° 0 mm 4 m/s 749 mmHg 86%
    07:00 +17°C° 0 mm 4 m/s 749 mmHg 82%
    08:00 +18°C° 0 mm 4 m/s 749 mmHg 81%
    09:00 +19°C° 0 mm 5 m/s 750 mmHg 79%
    10:00 +20°C° 0 mm 5 m/s 750 mmHg 77%
    11:00 +20°C° 0 mm 5 m/s 750 mmHg 75%
    12:00 +21°C° 0 mm 5 m/s 750 mmHg 74%
    13:00 +22°C° 0 mm 4 m/s 750 mmHg 72%
    14:00 +22°C° 0 mm 5 m/s 750 mmHg 71%
    15:00 +22°C° 0 mm 5 m/s 750 mmHg 69%
    16:00 +22°C° 0 mm 5 m/s 750 mmHg 68%
    17:00 +20°C° 0 mm 4 m/s 750 mmHg 71%
    18:00 +19°C° 0 mm 4 m/s 750 mmHg 75%
    19:00 +18°C° 0 mm 3 m/s 750 mmHg 78%
    20:00 +16°C° 0 mm 3 m/s 750 mmHg 82%
    21:00 +14°C° 0 mm 3 m/s 750 mmHg 86%
    22:00 +14°C° 0 mm 2 m/s 750 mmHg 89%
    23:00 +13°C° 0 mm 2 m/s 750 mmHg 89%

    Amanhã, 18 Junho, Terça-feira

    Tempo Temperatura Precipitação Vento Pressão Humidade
    00:00 +13°C° 0 mm 2 m/s 751 mmHg 89%
    01:00 +13°C° 0 mm 2 m/s 751 mmHg 89%
    02:00 +13°C° 0 mm 2 m/s 751 mmHg 89%
    03:00 +12°C° 0 mm 2 m/s 751 mmHg 88%
    04:00 +12°C° 0 mm 2 m/s 751 mmHg 88%
    05:00 +14°C° 0 mm 2 m/s 751 mmHg 83%
    06:00 +16°C° 0 mm 2 m/s 751 mmHg 79%
    07:00 +17°C° 0 mm 2 m/s 751 mmHg 74%
    08:00 +19°C° 0 mm 2 m/s 751 mmHg 69%
    09:00 +20°C° 0 mm 2 m/s 751 mmHg 64%
    10:00 +23°C° 0 mm 2 m/s 751 mmHg 59%
    11:00 +23°C° 0 mm 2 m/s 750 mmHg 57%
    12:00 +24°C° 0 mm 2 m/s 750 mmHg 55%
    13:00 +24°C° 0 mm 2 m/s 750 mmHg 53%
    14:00 +24°C° 0 mm 2 m/s 749 mmHg 56%
    15:00 +24°C° 0 mm 3 m/s 749 mmHg 58%
    16:00 +24°C° 0 mm 3 m/s 749 mmHg 60%
    17:00 +22°C° 0 mm 3 m/s 748 mmHg 65%
    18:00 +21°C° 0 mm 2 m/s 748 mmHg 71%
    19:00 +20°C° 0 mm 2 m/s 748 mmHg 76%
    20:00 +19°C° 0 mm 2 m/s 748 mmHg 76%
    21:00 +18°C° 0 mm 3 m/s 748 mmHg 76%
    22:00 +17°C° 0 mm 3 m/s 748 mmHg 77%
    23:00 +17°C° 0 mm 3 m/s 748 mmHg 78%

    Depois de amanhã, 19 Junho, Quarta-feira

    Tempo Temperatura Precipitação Vento Pressão Humidade
    00:00 +16°C° 0 mm 3 m/s 747 mmHg 80%
    01:00 +16°C° 0 mm 3 m/s 747 mmHg 82%
    02:00 +16°C° 0 mm 3 m/s 747 mmHg 84%
    03:00 +16°C° 0 mm 3 m/s 746 mmHg 86%
    04:00 +16°C° 0 mm 3 m/s 746 mmHg 88%
    05:00 +15°C° 0 mm 4 m/s 746 mmHg 86%
    06:00 +17°C° 0 mm 4 m/s 746 mmHg 84%
    07:00 +18°C° 0 mm 4 m/s 746 mmHg 83%
    08:00 +18°C° 0 mm 4 m/s 746 mmHg 83%
    09:00 +17°C° 0 mm 5 m/s 746 mmHg 84%
    10:00 +17°C° 0 mm 5 m/s 746 mmHg 85%
    11:00 +19°C° 0 mm 5 m/s 745 mmHg 83%
    12:00 +20°C° 0 mm 5 m/s 745 mmHg 82%
    13:00 +21°C° 0 mm 6 m/s 744 mmHg 81%
    14:00 +21°C° 0.1 mm 5 m/s 744 mmHg 81%
    15:00 +22°C° 0.1 mm 5 m/s 744 mmHg 81%
    16:00 +23°C° 0.1 mm 5 m/s 743 mmHg 81%
    17:00 +22°C° 0.5 mm 4 m/s 743 mmHg 84%
    18:00 +22°C° 0.5 mm 4 m/s 743 mmHg 86%
    19:00 +22°C° 0.5 mm 3 m/s 742 mmHg 88%
    20:00 +21°C° 0.2 mm 2 m/s 742 mmHg 91%
    21:00 +20°C° 0.2 mm 2 m/s 742 mmHg 93%
    22:00 +20°C° 0.2 mm 1 m/s 742 mmHg 95%
    23:00 +19°C° 0 mm 2 m/s 742 mmHg 95%

    20 Junho, Quinta-feira

    Tempo Temperatura Precipitação Vento Pressão Humidade
    00:00 +18°C° 0 mm 2 m/s 742 mmHg 95%
    01:00 +18°C° 0 mm 2 m/s 742 mmHg 95%
    02:00 +18°C° 0 mm 2 m/s 742 mmHg 95%
    03:00 +18°C° 0 mm 2 m/s 742 mmHg 96%
    04:00 +18°C° 0 mm 2 m/s 743 mmHg 96%
    05:00 +19°C° 0 mm 2 m/s 743 mmHg 92%
    06:00 +21°C° 0 mm 2 m/s 743 mmHg 89%
    07:00 +23°C° 0 mm 2 m/s 743 mmHg 85%
    08:00 +25°C° 0 mm 2 m/s 743 mmHg 78%
    09:00 +26°C° 0 mm 2 m/s 744 mmHg 72%
    10:00 +28°C° 0 mm 2 m/s 744 mmHg 65%
    11:00 +28°C° 0 mm 2 m/s 744 mmHg 61%
    12:00 +29°C° 0 mm 2 m/s 744 mmHg 57%
    13:00 +30°C° 0 mm 2 m/s 744 mmHg 53%
    14:00 +30°C° 0 mm 2 m/s 744 mmHg 53%
    15:00 +30°C° 0 mm 2 m/s 744 mmHg 53%
    16:00 +30°C° 0 mm 1 m/s 744 mmHg 53%
    17:00 +28°C° 0.1 mm 1 m/s 744 mmHg 59%
    18:00 +27°C° 0.1 mm 1 m/s 744 mmHg 65%
    19:00 +26°C° 0.1 mm 1 m/s 744 mmHg 71%
    20:00 +24°C° 0.3 mm 1 m/s 744 mmHg 77%
    21:00 +21°C° 0.3 mm 2 m/s 745 mmHg 83%
    22:00 +20°C° 0.3 mm 3 m/s 745 mmHg 89%
    23:00 +20°C° 0.7 mm 2 m/s 745 mmHg 91%

    21 Junho, Sexta-feira

    Tempo Temperatura Precipitação Vento Pressão Humidade
    00:00 +19°C° 0.7 mm 2 m/s 745 mmHg 93%
    01:00 +19°C° 0.7 mm 2 m/s 745 mmHg 96%
    02:00 +18°C° 0.9 mm 2 m/s 745 mmHg 96%
    03:00 +18°C° 0.9 mm 3 m/s 745 mmHg 96%
    04:00 +17°C° 0.9 mm 3 m/s 745 mmHg 97%
    05:00 +17°C° 0.3 mm 3 m/s 745 mmHg 96%
    06:00 +17°C° 0.3 mm 3 m/s 745 mmHg 96%
    07:00 +17°C° 0.3 mm 3 m/s 746 mmHg 95%
    08:00 +18°C° 0 mm 3 m/s 746 mmHg 93%
    09:00 +19°C° 0 mm 3 m/s 746 mmHg 92%
    10:00 +20°C° 0 mm 3 m/s 746 mmHg 90%
    11:00 +22°C° 0 mm 3 m/s 745 mmHg 82%
    12:00 +24°C° 0 mm 3 m/s 745 mmHg 75%
    13:00 +26°C° 0 mm 3 m/s 745 mmHg 67%
    14:00 +26°C° 0.3 mm 3 m/s 745 mmHg 68%
    15:00 +26°C° 0.3 mm 3 m/s 745 mmHg 68%
    16:00 +26°C° 0.3 mm 3 m/s 745 mmHg 69%
    17:00 +25°C° 0 mm 3 m/s 745 mmHg 75%
    18:00 +24°C° 0 mm 3 m/s 744 mmHg 80%
    19:00 +22°C° 0 mm 3 m/s 744 mmHg 86%
    20:00 +21°C° 0 mm 3 m/s 744 mmHg 89%
    21:00 +20°C° 0 mm 3 m/s 745 mmHg 93%
    22:00 +19°C° 0 mm 3 m/s 745 mmHg 96%
    23:00 +19°C° 0 mm 2 m/s 745 mmHg 96%

    22 Junho, Sábado

    Tempo Temperatura Precipitação Vento Pressão Humidade
    00:00 +18°C° 0 mm 2 m/s 744 mmHg 96%
    01:00 +18°C° 0 mm 2 m/s 744 mmHg 96%
    02:00 +18°C° 0 mm 2 m/s 744 mmHg 97%
    03:00 +18°C° 0 mm 2 m/s 744 mmHg 97%
    04:00 +18°C° 0 mm 2 m/s 744 mmHg 97%
    05:00 +19°C° 0 mm 3 m/s 744 mmHg 94%
    06:00 +20°C° 0 mm 3 m/s 744 mmHg 91%
    07:00 +21°C° 0 mm 3 m/s 744 mmHg 88%
    08:00 +24°C° 0 mm 3 m/s 744 mmHg 83%
    09:00 +25°C° 0 mm 3 m/s 744 mmHg 78%
    10:00 +27°C° 0 mm 3 m/s 744 mmHg 74%
    11:00 +27°C° 1.3 mm 3 m/s 744 mmHg 72%
    12:00 +28°C° 1.3 mm 3 m/s 743 mmHg 70%
    13:00 +28°C° 1.3 mm 3 m/s 743 mmHg 68%
    14:00 +28°C° 1.7 mm 3 m/s 743 mmHg 70%
    15:00 +28°C° 1.7 mm 3 m/s 743 mmHg 72%
    16:00 +27°C° 1.7 mm 3 m/s 742 mmHg 74%
    17:00 +26°C° 2.2 mm 4 m/s 742 mmHg 79%
    18:00 +23°C° 2.2 mm 4 m/s 742 mmHg 85%
    19:00 +21°C° 2.2 mm 4 m/s 742 mmHg 90%
    20:00 +21°C° 0.4 mm 4 m/s 742 mmHg 92%
    21:00 +20°C° 0.4 mm 4 m/s 742 mmHg 95%
    22:00 +19°C° 0.4 mm 4 m/s 742 mmHg 97%
    23:00 +18°C° 0 mm 4 m/s 742 mmHg 97%
    Mostrar mais